Location: Cormont
(50.5693°N, 1.7416°E)
Time: 15:54:11
(UTC+00:00)

Cosmos 1812 Rocket - Pass Details

Date: 21 October 2019
Orbit: 606 x 632 km, 82.5° (Epoch: 14 November)

Event Time Altitude Azimuth Distance (km) Brightness Sun altitude
Rises 19:06:29 0° 203° (SSW) 2,897 7.2 -22.4°
Reaches altitude 10° 19:08:46 10° 209° (SSW) 1,999 6.4 -22.7°
Maximum altitude 19:13:04 49° 285° (WNW) 818 4.5 -23.4°
Drops below altitude 10° 19:17:26 10° 1° (N) 2,025 6.3 -24.1°
Sets 19:19:45 0° 7° (N) 2,939 7.1 -24.4°
